• In Deutschland
  • Länderverzeichnis
  • Für 7 Tage
  • Wassertemperatur
  • Satellitenkarten
  • Wetterkarte
  • Widgets
  • user-avatar
    Anmelden

    Stündliche Wetter Tönisvorst

    Heute, 21 Oktober, Samstag

    Zeit Temperatur Niederschläge Wind Luftdruck Luftfeuchtigkeit
    00:00 +10°C° 0 mm 3 m/S 757 mmHg 78%
    01:00 +10°C° 0 mm 3 m/S 756 mmHg 78%
    02:00 +10°C° 0 mm 3 m/S 756 mmHg 78%
    03:00 +10°C° 0 mm 3 m/S 756 mmHg 78%
    04:00 +11°C° 0 mm 4 m/S 756 mmHg 78%
    05:00 +11°C° 0 mm 4 m/S 755 mmHg 78%
    06:00 +11°C° 0 mm 4 m/S 755 mmHg 79%
    07:00 +12°C° 0,7 mm 4 m/S 755 mmHg 80%
    08:00 +13°C° 0,7 mm 5 m/S 755 mmHg 82%
    09:00 +14°C° 0,7 mm 5 m/S 754 mmHg 84%
    10:00 +14°C° 1,1 mm 5 m/S 754 mmHg 85%
    11:00 +15°C° 1,1 mm 5 m/S 755 mmHg 86%
    12:00 +15°C° 1,1 mm 5 m/S 755 mmHg 86%
    13:00 +15°C° 0 mm 5 m/S 755 mmHg 83%
    14:00 +15°C° 0 mm 5 m/S 755 mmHg 79%
    15:00 +14°C° 0 mm 5 m/S 755 mmHg 75%
    16:00 +14°C° 0 mm 5 m/S 755 mmHg 75%
    17:00 +13°C° 0 mm 5 m/S 755 mmHg 75%
    18:00 +12°C° 0 mm 5 m/S 755 mmHg 75%
    19:00 +12°C° 0 mm 5 m/S 756 mmHg 74%
    20:00 +12°C° 0 mm 5 m/S 756 mmHg 74%
    21:00 +10°C° 0 mm 5 m/S 756 mmHg 73%
    22:00 +10°C° 0 mm 5 m/S 755 mmHg 73%
    23:00 +10°C° 0 mm 6 m/S 755 mmHg 72%

    Morgen, 22 Oktober, Sonntag

    Zeit Temperatur Niederschläge Wind Luftdruck Luftfeuchtigkeit
    00:00 +10°C° 0 mm 6 m/S 755 mmHg 71%
    01:00 +9°C° 0 mm 6 m/S 755 mmHg 72%
    02:00 +9°C° 0 mm 7 m/S 755 mmHg 73%
    03:00 +9°C° 0 mm 7 m/S 755 mmHg 73%
    04:00 +9°C° 0 mm 7 m/S 755 mmHg 74%
    05:00 +9°C° 0 mm 7 m/S 755 mmHg 74%
    06:00 +9°C° 0 mm 7 m/S 755 mmHg 75%
    07:00 +10°C° 0 mm 7 m/S 755 mmHg 74%
    08:00 +10°C° 0 mm 7 m/S 755 mmHg 74%
    09:00 +10°C° 0 mm 8 m/S 755 mmHg 73%
    10:00 +10°C° 0,2 mm 7 m/S 755 mmHg 73%
    11:00 +11°C° 0,2 mm 7 m/S 755 mmHg 73%
    12:00 +11°C° 0,2 mm 7 m/S 755 mmHg 73%
    13:00 +11°C° 0,3 mm 7 m/S 756 mmHg 73%
    14:00 +11°C° 0,3 mm 6 m/S 756 mmHg 74%
    15:00 +10°C° 0,3 mm 6 m/S 756 mmHg 74%
    16:00 +10°C° 0,1 mm 6 m/S 756 mmHg 75%
    17:00 +9°C° 0,1 mm 6 m/S 756 mmHg 77%
    18:00 +9°C° 0,1 mm 5 m/S 757 mmHg 79%
    19:00 +9°C° 0,2 mm 5 m/S 757 mmHg 79%
    20:00 +9°C° 0,2 mm 5 m/S 757 mmHg 79%
    21:00 +9°C° 0,2 mm 5 m/S 758 mmHg 79%
    22:00 +9°C° 0,1 mm 5 m/S 758 mmHg 80%
    23:00 +8°C° 0,1 mm 5 m/S 758 mmHg 81%

    übermorgen, 23 Oktober, Montag

    Zeit Temperatur Niederschläge Wind Luftdruck Luftfeuchtigkeit
    00:00 +8°C° 0,1 mm 5 m/S 758 mmHg 82%
    01:00 +8°C° 0,4 mm 5 m/S 759 mmHg 83%
    02:00 +9°C° 0,4 mm 5 m/S 759 mmHg 85%
    03:00 +9°C° 0,4 mm 5 m/S 759 mmHg 86%
    04:00 +9°C° 0,2 mm 5 m/S 759 mmHg 87%
    05:00 +9°C° 0,2 mm 5 m/S 759 mmHg 87%
    06:00 +8°C° 0,2 mm 4 m/S 759 mmHg 87%
    07:00 +9°C° 0,1 mm 5 m/S 760 mmHg 86%
    08:00 +10°C° 0,1 mm 5 m/S 760 mmHg 84%
    09:00 +10°C° 0,1 mm 5 m/S 760 mmHg 82%
    10:00 +12°C° 0,1 mm 5 m/S 760 mmHg 79%
    11:00 +13°C° 0,1 mm 4 m/S 760 mmHg 77%
    12:00 +14°C° 0,1 mm 4 m/S 761 mmHg 74%
    13:00 +13°C° 0,1 mm 4 m/S 761 mmHg 76%
    14:00 +13°C° 0,1 mm 4 m/S 761 mmHg 79%
    15:00 +13°C° 0,1 mm 3 m/S 761 mmHg 81%
    16:00 +13°C° 0,2 mm 3 m/S 761 mmHg 84%
    17:00 +12°C° 0,2 mm 3 m/S 761 mmHg 87%
    18:00 +11°C° 0,2 mm 3 m/S 761 mmHg 89%
    19:00 +11°C° 0,2 mm 3 m/S 761 mmHg 90%
    20:00 +12°C° 0,2 mm 2 m/S 761 mmHg 90%
    21:00 +12°C° 0,2 mm 2 m/S 762 mmHg 91%
    22:00 +12°C° 0,2 mm 2 m/S 762 mmHg 91%
    23:00 +12°C° 0,2 mm 2 m/S 762 mmHg 92%

    24 Oktober, Dienstag

    Zeit Temperatur Niederschläge Wind Luftdruck Luftfeuchtigkeit
    00:00 +12°C° 0,2 mm 2 m/S 762 mmHg 92%
    01:00 +13°C° 0,1 mm 2 m/S 762 mmHg 92%
    02:00 +13°C° 0,1 mm 2 m/S 762 mmHg 93%
    03:00 +13°C° 0,1 mm 2 m/S 762 mmHg 93%
    04:00 +13°C° 0,1 mm 2 m/S 762 mmHg 94%
    05:00 +13°C° 0,1 mm 2 m/S 762 mmHg 94%
    06:00 +13°C° 0,1 mm 2 m/S 762 mmHg 95%
    07:00 +14°C° 0 mm 2 m/S 763 mmHg 94%
    08:00 +15°C° 0 mm 2 m/S 763 mmHg 92%
    09:00 +15°C° 0 mm 2 m/S 763 mmHg 91%
    10:00 +16°C° 0 mm 2 m/S 763 mmHg 89%
    11:00 +16°C° 0 mm 2 m/S 763 mmHg 87%
    12:00 +17°C° 0 mm 3 m/S 763 mmHg 84%
    13:00 +17°C° 0 mm 3 m/S 763 mmHg 85%
    14:00 +17°C° 0 mm 3 m/S 763 mmHg 86%
    15:00 +17°C° 0 mm 2 m/S 763 mmHg 87%
    16:00 +16°C° 0 mm 3 m/S 763 mmHg 89%
    17:00 +16°C° 0 mm 3 m/S 764 mmHg 90%
    18:00 +16°C° 0 mm 3 m/S 764 mmHg 92%
    19:00 +16°C° 0,1 mm 3 m/S 764 mmHg 92%
    20:00 +16°C° 0,1 mm 3 m/S 764 mmHg 93%
    21:00 +16°C° 0,1 mm 3 m/S 764 mmHg 94%
    22:00 +16°C° 0 mm 3 m/S 764 mmHg 94%
    23:00 +16°C° 0 mm 3 m/S 764 mmHg 94%

    25 Oktober, Mittwoch

    Zeit Temperatur Niederschläge Wind Luftdruck Luftfeuchtigkeit
    00:00 +16°C° 0 mm 3 m/S 764 mmHg 94%
    01:00 +16°C° 0 mm 3 m/S 764 mmHg 94%
    02:00 +14°C° 0 mm 3 m/S 764 mmHg 94%
    03:00 +14°C° 0 mm 3 m/S 764 mmHg 95%
    04:00 +15°C° 0 mm 2 m/S 764 mmHg 95%
    05:00 +15°C° 0 mm 2 m/S 764 mmHg 95%
    06:00 +14°C° 0 mm 2 m/S 764 mmHg 96%
    07:00 +14°C° 0 mm 3 m/S 765 mmHg 93%
    08:00 +16°C° 0 mm 3 m/S 765 mmHg 89%
    09:00 +17°C° 0 mm 3 m/S 765 mmHg 86%
    10:00 +18°C° 0 mm 3 m/S 765 mmHg 82%
    11:00 +19°C° 0 mm 3 m/S 765 mmHg 79%
    12:00 +20°C° 0 mm 3 m/S 765 mmHg 75%
    13:00 +20°C° 0 mm 2 m/S 764 mmHg 76%
    14:00 +20°C° 0 mm 2 m/S 764 mmHg 77%
    15:00 +21°C° 0 mm 1 m/S 764 mmHg 77%
    16:00 +20°C° 0 mm 1 m/S 764 mmHg 81%
    17:00 +19°C° 0 mm 1 m/S 764 mmHg 85%
    18:00 +18°C° 0 mm 1 m/S 765 mmHg 89%
    19:00 +16°C° 0 mm 1 m/S 765 mmHg 90%
    20:00 +16°C° 0 mm 1 m/S 765 mmHg 91%
    21:00 +16°C° 0 mm 1 m/S 765 mmHg 92%
    22:00 +16°C° 0 mm 1 m/S 765 mmHg 92%
    23:00 +15°C° 0 mm 1 m/S 765 mmHg 92%

    26 Oktober, Donnerstag

    Zeit Temperatur Niederschläge Wind Luftdruck Luftfeuchtigkeit
    00:00 +15°C° 0 mm 2 m/S 765 mmHg 93%
    01:00 +15°C° 0 mm 2 m/S 765 mmHg 92%
    02:00 +15°C° 0 mm 2 m/S 765 mmHg 92%
    03:00 +15°C° 0 mm 2 m/S 765 mmHg 91%
    04:00 +14°C° 0 mm 2 m/S 765 mmHg 91%
    05:00 +14°C° 0 mm 2 m/S 765 mmHg 90%
    06:00 +14°C° 0 mm 2 m/S 764 mmHg 90%
    07:00 +15°C° 0 mm 2 m/S 765 mmHg 85%
    08:00 +16°C° 0 mm 2 m/S 765 mmHg 80%
    09:00 +18°C° 0 mm 2 m/S 765 mmHg 76%
    10:00 +19°C° 0 mm 2 m/S 765 mmHg 71%
    11:00 +20°C° 0 mm 2 m/S 765 mmHg 67%
    12:00 +21°C° 0 mm 2 m/S 765 mmHg 62%
    13:00 +21°C° 0 mm 2 m/S 764 mmHg 64%
    14:00 +21°C° 0 mm 2 m/S 764 mmHg 66%
    15:00 +21°C° 0 mm 2 m/S 764 mmHg 68%
    16:00 +20°C° 0 mm 2 m/S 764 mmHg 71%
    17:00 +19°C° 0 mm 2 m/S 764 mmHg 75%
    18:00 +18°C° 0 mm 2 m/S 764 mmHg 78%
    19:00 +17°C° 0 mm 2 m/S 765 mmHg 79%
    20:00 +17°C° 0 mm 2 m/S 765 mmHg 79%
    21:00 +16°C° 0 mm 2 m/S 765 mmHg 80%
    22:00 +15°C° 0 mm 2 m/S 765 mmHg 81%
    23:00 +15°C° 0 mm 2 m/S 765 mmHg 82%
    Mehr zeigen